User: anonymous   Login
Location: Unspecified
(0.0000°N, 0.0000°E)
Time: 12:00:50
(UTC+00:00)
Language:

COMSATBw-1 - Orbit

View from above orbital plane
View from above orbital plane
View from above satellite
View from above satellite

Ground track
Ground track

The orbit data is extracted from the following two-line orbital elements,

1 35943U 09054B   21342.13635935  .00000023  00000-0  00000+0 0  9993
2 35943   0.0277  34.4437 0002307 222.7428 292.0559  1.00277366 44693
Epoch (UTC): 08 December 2021 03:16:21
Eccentricity: 0.0002307
inclination: 0.0277°
perigee height: 35775 km
apogee height: 35794 km
right ascension of ascending node: 34.4437°
argument of perigee: 222.7428°
revolutions per day: 1.00277366
mean anomaly at epoch: 292.0559°
orbit number at epoch: 4469

The dashed part of the orbit path shows where the satellite is in the earth's shadow,  

DLR